www.pogodaiklimat.ru

Погода и климат >> Архив погоды >> Россия >> город Санкт-Петербург >> Санкт-Петербург


АРХИВ ПОГОДЫ в Санкт-Петербурге

Время (UTC), дата Ветер
(напр.,м/с)
 
Видим.   Явления Облачность Т
(С)
Тd
(С)
f
(%)
Тe
(С)
Тes
(С)
Комфортность P
(гПа)
Po
(гПа)
Тmin
(С)
Tmax
(С)
R
(мм)
S
(см)
00 14.02 З 2 10 км 10/0
[Ac As]
+1.6 -0.2 88 -2 -2 тепло 1014.5 1013.7
03 14.02 СЗ 4 10 км 4/0
[As op]
+2.8 +0.2 83 -2 -2 тепло 1015.1 1014.4 -0.2
06 14.02 СЗ 3 10 км ясно +2.4 -0.1 84 -2 -2 тепло 1017.0 1016.2 0.0
09 14.02 С 4 10 км 3/0
[Ci fib]
+5.0 -1.3 64 +1 +2 тепло 1019.9 1019.1
12 14.02 С 3 10 км 3/3 600 м
[Sc]
+5.6 -3.2 53 +3 +4 тепло 1022.2 1021.4
15 14.02 С 2 10 км 4/0
[Ac As]
+3.7 -3.3 60 +1 +1 тепло 1024.2 1023.4
18 14.02 С 3 10 км ясно +1.8 -4.3 64 -2 -2 тепло 1026.2 1025.4 +5.9
21 14.02 С 2 10 км ясно +0.3 -5.0 68 -3 -3 тепло 1028.1 1027.3
00 15.02 С 1 10 км ясно -1.7 -5.0 78 -4 -4 тепло 1029.6 1028.8
03 15.02 С 1 10 км ясно -2.7 -5.3 82 -5 -5 по сезону 1031.5 1030.7 -2.8
06 15.02 штиль 0 10 км 3/0
[Ci fib]
-3.9 -5.4 89 -5 -5 по сезону 1033.0 1032.2 -4.2 5
09 15.02 ЮЗ 1 10 км 4/0
[Ci fib]
-3.1 -5.7 82 -5 -3 по сезону 1034.2 1033.4
12 15.02 З 2 10 км 4/0
[Ci fib]
-0.8 -5.0 73 -4 -3 по сезону 1034.7 1033.9
15 15.02 штиль 0 10 км 3/0
[Ci fib]
-2.4 -5.2 81 -3 -3 по сезону 1033.9 1033.0
18 15.02 штиль 0 10 км 4/0
[Ac trans Ci fib]
-2.4 -4.5 85 -4 -4 по сезону 1032.2 1031.4 +0.4
21 15.02 Ю 1 10 км 4/0
[Ac trans Ci fib]
-1.4 -5.4 74 -3 -3 тепло 1030.1 1029.3
00 16.02 ЮВ 1 10 км 8/0
[Ac trans Ci fib]
-1.6 -6.2 71 -3 -3 тепло 1027.3 1026.5
03 16.02 ЮВ 1 10 км 5/0
[Ac trans Ci fib]
-1.5 -6.1 71 -3 -3 тепло 1023.5 1022.7 -3.9
06 16.02 ЮЗ 2 10 км 10/10 420 м
[Sc]
-1.4 -4.7 78 -5 -5 по сезону 1021.4 1020.6 -2.4 5
09 16.02 ЮЗ 3 10 км 10/10 500 м
[Sc]
-1.7 -4.1 84 -7 -7 по сезону 1020.2 1019.4
12 16.02 ЮЗ 4 4000 м слабый снег 10/10 300 м
[Frnb Ns]
-2.1 -3.4 91 -8 -8 по сезону 1018.5 1017.7
15 16.02 ЮЗ 2 10 км {снег} 10/10 570 м
[Sc]
-1.3 -3.9 82 -5 -5 по сезону 1016.6 1015.8 0.2
18 16.02 ЮЗ 2 10 км {снег} 10/10 800 м
[Sc]
-1.2 -3.7 83 -5 -5 по сезону 1014.6 1013.8 -1.1 0.2
21 16.02 ЮЗ 2 10 км 10/10 840 м
[Sc]
-0.8 -2.8 86 -5 -5 по сезону 1012.0 1011.2
00 17.02 ЮЗ 2 10 км 9/0
[Ac As]
-0.8 -2.8 86 -5 -5 по сезону 1010.3 1009.6
03 17.02 ЮЗ 2 4000 м слабый снег 10/10 300 м
[Frnb Ns]
-1.1 -2.3 92 -5 -5 по сезону 1008.4 1007.6 -1.3
06 17.02 ЮЗ 3 4000 м слабый снег 10/10 300 м
[Frnb Ns]
-0.5 -1.6 92 -5 -5 по сезону 1006.2 1005.5 -1.2 0.5 4
09 17.02 ЮЗ 2 2000 м слабый снег {ливн. осадки} 10/10 200 м
[Frnb Ns]
+0.4 -0.4 94 -3 -3 тепло 1005.2 1004.4
12 17.02 З 2 2000 м слабая морось {ливн. осадки, снег} 10/10 200 м
[St]
+1.0 +0.4 96 -3 -3 по сезону 1004.2 1003.4
15 17.02 З 2 4000 м слабый снег {морось} 10/10 300 м
[Frnb Ns]
+0.4 0.0 97 -3 -3 по сезону 1004.2 1003.4 2
18 17.02 З 3 2000 м слабая морось {снег} 10/10 200 м
[St]
+0.4 +0.1 98 -4 -4 по сезону 1004.9 1004.1 +1.1 2
21 17.02 З 2 2000 м слабая морось {туман} 10/10 200 м
[St]
+0.6 +0.3 98 -3 -3 тепло 1005.5 1004.7
00 18.02 З 2 10 км {морось, туман} 10/10 360 м
[Sc]
+0.8 +0.2 96 -3 -3 тепло 1006.3 1005.5
03 18.02 З 3 10 км 9/9 300 м
[Sc]
+0.6 -0.7 91 -4 -4 тепло 1006.5 1005.7 +0.4
06 18.02 З 3 10 км 10/10 210 м
[St]
-0.4 -1.3 94 -5 -5 по сезону 1006.6 1005.8 -0.5 5
09 18.02 З 3 10 км 10/10 210 м
[St]
+0.2 -1.5 88 -4 -4 по сезону 1006.1 1005.3
12 18.02 З 3 10 км 8/0
[Ac trans]
+1.0 -1.9 81 -3 -3 по сезону 1005.3 1004.5
15 18.02 З 5-10
{11}
10 км 10/10 180 м
[St]
+1.9 -1.1 80 -4 -4 по сезону 1005.4 1004.7
18 18.02 З 3
{10}
10 км {метель} 10/10 300 м
[Sc]
+1.3 -0.5 88 -3 -3 по сезону 1006.5 1005.7 +2.0
21 18.02 З 1 4000 м слабый снег 10/10 300 м
[Frnb Ns]
+0.4 -0.1 96 -2 -2 тепло 1007.1 1006.3
00 19.02 ЮЗ 1 500 м слабый ливневой снег 10/10 300 м
[Cb cap]
+0.4 0.0 97 -2 -2 тепло 1006.1 1005.3
03 19.02 ЮЗ 4 4000 м слабый снег {ливн. осадки} 10/10 300 м
[Frnb Ns]
+1.0 -0.5 90 -4 -4 тепло 1003.9 1003.1 +0.2 4
06 19.02 ЮЗ 5 4000 м слабый снег {ливн. осадки} 10/10 300 м
[Frnb Ns]
+0.8 -0.5 91 -5 -5 по сезону 1000.9 1000.2 +0.2 4 5
09 19.02 ЮЗ 3
{11}
2000 м снег {ливн. осадки} 10/10 200 м
[Frnb Ns]
+0.6 0.0 96 -4 -4 по сезону 997.8 997.1
12 19.02 ЮЗ 5-11
{12}
10 км слабый снег {ливн. осадки} 10/10 300 м
[Frnb Ns]
+1.2 +0.4 94 -5 -5 по сезону 994.3 993.6
15 19.02 З 3
{11}
10 км слабый дождь {снег} 10/10 200 м
[Frnb Ns]
+2.2 +1.2 93 -2 -2 тепло 993.0 992.2 9
18 19.02 З 3 10 км слабый дождь {снег} 10/10 200 м
[Frnb Ns]
+2.1 +1.5 96 -2 -2 тепло 993.0 992.2 +2.3 10
21 19.02 ЮЗ 5
{11}
10 км {дождь} 10/10 270 м
[St]
+3.3 +1.8 90 -2 -2 тепло 991.9 991.2
00 20.02 ЮЗ 6-12
{15}
10 км слабый дождь 10/10 200 м
[St]
+3.3 +1.9 91 -3 -3 тепло 989.0 988.3
03 20.02 З 5-10
{13}
10 км в посл. час дождь {снег} 9/9 300 м
[Sc]
+3.1 +1.2 87 -2 -2 тепло 988.9 988.1 +1.9 6
06 20.02 З 5-11
{12}
10 км {дождь} 10/10 330 м
[Sc]
+1.5 0.0 90 -4 -4 тепло 990.7 990.0 +1.5 4 3
09 20.02 СЗ 2
{11}
10 км 10/3 300 м
[Sc As trans]
+1.4 -2.8 74 -2 -1 тепло 991.3 990.5
12 20.02 З 2 4000 м слабый снег 10/10 300 м
[Frnb Ns]
+0.2 -1.7 87 -3 -3 по сезону 990.4 989.7
15 20.02 штиль 0 4000 м слабый снег 10/10 300 м
[Frnb Ns]
-0.1 -2.0 87 -1 -1 тепло 988.8 988.1 0.1
18 20.02 штиль 0 4000 м слабый снег 10/10 300 м
[Frnb Ns]
-1.0 -2.7 88 -2 -2 тепло 987.8 987.1 +1.5 0.9
21 20.02 СВ 1 4000 м слабый снег 10/10 300 м
[Frnb Ns]
-1.3 -2.7 90 -4 -4 по сезону 986.0 985.2

 

Местоположение метеостанции Санкт-Петербург (город Санкт-Петербург, Россия): широта 59.97 долгота 30.30 высота над уровнем моря 6 м.

В архиве по умолчанию представлена погода в Санкт-Петербурге за последнюю неделю. Архивные данные за месяц целиком и за предыдущие месяцы, начиная с января 2011 года, Вы можете получить, выбрав интересующий диапазон дат из раскрывающегося списка и нажав кнопку "Ввод!".

Внимание! Время в таблицах - всемирное. Для получения местного времени необходимо прибавить поправку, которая в Санкт-Петербурге равна 3 ч.

Смотрите также архив погоды в соседних городах и на ближайших метеорологических станциях:

Погода в Воейково (город Санкт-Петербург, Россия) (22 км)
Погода в Ломоносове (город Санкт-Петербург, Россия) (29 км)
Погода в Кронштадте (город Санкт-Петербург, Россия) (30 км)
Погода в Шлиссельбурге (Ленинградская область, Россия) (39 км)
Погода в Рощино (Ленинградская область, Россия) (48 км)
Погода в Шепелево (Ленинградская область, Россия) (58 км)
Погода в Сосново (Ленинградская область, Россия) (65 км)
Погода в Белогорке (Ленинградская область, Россия) (70 км)
Погода в Волосово (Ленинградская область, Россия) (75 км)
Погода в Озерках (Ленинградская область, Россия) (77 км)

Пояснения к столбцам:

Ветер - указаны скорость ветра в м/с - средняя за 10 мин, порывы в срок и между сроками (в фигурных скобках) и направление, откуда дует ветер: С - северный, СВ - северо-восточный, В - восточный, ЮВ - юго-восточный, Ю - южный, ЮЗ - юго-западный, З - западный, СЗ - северо-западный.
Видимость - горизонтальная дальность видимости в метрах или километрах. При видимости от 1 до 10 км при отсутствии осадков обычно наблюдается дымка, при ухудшении видимости до 1 км и менее - туман. В сухую погоду видимость может ухудшаться дымом, пылью или мглою.
Явления - указаны атмосферные явления, наблюдавшиеся в срок или в последний час перед сроком; фигурными скобками обозначены явления, наблюдавшиеся между сроками (за 1-3 часа до срока); квадратными скобками обозначены град или гололедные отложения с указанием их диаметра в мм.
Облачность - указаны через наклонную черту общая и нижняя облачность в баллах и высота нижней границы облаков в метрах; квадратными скобками обозначены формы облаков: Ci - перистые, Cs - перисто-слоистые, Cc - перисто-кучевые, Ac - высококучевые, As - высокослоистые, Sc - слоисто-кучевые, Ns - слоисто-дождевые, Cu - кучевые, Cb - кучево-дождевые. Подробнее классификацию облаков см. в Атласе облаков (PDF).
T - Температура воздуха - температура, измеренная на высоте 2 м над землей.
Td - Температура точки росы - температура, при понижении до которой содержащийся в воздухе водяной пар достигнет насыщения.
f - Относительная влажность воздуха - влажноcть воздуха, измеренная на высоте 2 м над землей.
Te - Эффективная температура - температура, которую ощущает одетый по сезону человек в тени. Характеристика душности погоды. При расчете учитывается влияние влажности воздуха и скорости ветра на теплоощущения человека.
Tes - Эффективная температура на солнце - температура, которую ощущает человек, с поправкой на солнечный нагрев. Характеристика знойности погоды. Зависит от высоты солнца над горизонтом, облачности и скорости ветра. Ночью, в пасмурную погоду, а также при ветре 12 м/с и более поправка равна нулю.
P - Атмосферное давление - приведенное к уровню моря атмосферное давление.
Po - Атмосферное давление - измеренное на уровне метеостанции атмосферное давление.
Tmin - Минимальная температура - минимум температуры воздуха на высоте 2 м над землей.
Tmax - Максимальная температура - максимум температуры воздуха на высоте 2 м над землей.
R - Количество осадков - Количество выпавших осадков, мм. При наведении курсора мыши на число - период времени, за который выпало указанное количество осадков.
S - Снежный покров - Высота снежного покрова, см. При наведении курсора мыши на число - состояние снежного покрова и степень покрытия местности в баллах.